Tracking 19377 objects as of 11-Dec-2018
HD Live streaming from Space Station
objects crossing your sky now

COSMOS 917 DEB

Track COSMOS 917 DEB now!


NORAD ID: 26964
Int'l Code: 1977-047E
Perigee: 3,563.0 km
Apogee: 36,451.9 km
Inclination: 64.7 °
Period: 710.6 minutes
Semi major axis: 26378 km
RCS: 0.2518 m2 (medium)
Launch date: June 16, 1977
Source: Commonwealth of Independent States (former USSR) (CIS)
Launch site: PLESETSK MISSILE AND SPACE COMPLEX (PKMTR)

Note: This is SATELLITE DEBRIS
aabbcc
Your satellite tracking list
Your tracking list is empty




NASA's NSSDC Master Catalog

Two Line Element Set (TLE):
1 26964U 77047E   18343.69803335 -.00000464  00000-0  00000+0 0  9992
2 26964  64.7290 239.8813 6234060  46.6070 350.8176  2.02641811521806
Source of the keplerian elements: AFSPC